| time (UTC) | temp F | wind direction | speed knots | gust knots | rain 1hr in | rain 24hr in | rain mn in | humidity % | barometer mb |
| 20260507231438 | 65 | 143 | 3.5 | 5.2 | 0.00 | 0.00 | 0.00 | 36 | 984.9 |
| 20260507230935 | 65 | 174 | 1.7 | 2.6 | 0.00 | 0.00 | 0.00 | 36 | 984.6 |
| 20260507230432 | 65 | 159 | 4.3 | 6.1 | 0.00 | 0.00 | 0.00 | 36 | 984.6 |
| 20260507225932 | 65 | 214 | 1.7 | 3.5 | 0.00 | 0.00 | 0.00 | 37 | 984.8 |
| 20260507225428 | 66 | 179 | 6.1 | 9.6 | 0.00 | 0.00 | 0.00 | 36 | 984.7 |
| 20260507224925 | 66 | 169 | 3.5 | 3.5 | 0.00 | 0.00 | 0.00 | 35 | 984.2 |
| 20260507224420 | 66 | 169 | 3.5 | 3.5 | 0.00 | 0.00 | 0.00 | 35 | 984.2 |
| 20260507223918 | 67 | 217 | 1.7 | 1.7 | 0.00 | 0.00 | 0.00 | 37 | 984.2 |
| 20260507223414 | 67 | 196 | 0.9 | 0.9 | 0.00 | 0.00 | 0.00 | 36 | 984.1 |
| 20260507222911 | 67 | 196 | 0.9 | 0.9 | 0.00 | 0.00 | 0.00 | 36 | 984.0 |
| 20260507222408 | 67 | 180 | 0.9 | 1.7 | 0.00 | 0.00 | 0.00 | 36 | 984.0 |
| 20260507221904 | 67 | 158 | 3.5 | 5.2 | 0.00 | 0.00 | 0.00 | 35 | 984.1 |
| 20260507221401 | 67 | 158 | 3.5 | 6.1 | 0.00 | 0.00 | 0.00 | 35 | 983.8 |
| 20260507220856 | 67 | 185 | 2.6 | 5.2 | 0.00 | 0.00 | 0.00 | 35 | 983.9 |
| 20260507220355 | 67 | 157 | 2.6 | 3.5 | 0.00 | 0.00 | 0.00 | 35 | 983.8 |
| 20260507215851 | 67 | 183 | 3.5 | 5.2 | 0.00 | 0.00 | 0.00 | 36 | 983.6 |
| 20260507215348 | 68 | 137 | 2.6 | 3.5 | 0.00 | 0.00 | 0.00 | 35 | 983.6 |
| 20260507214845 | 68 | 226 | 2.6 | 3.5 | 0.00 | 0.00 | 0.00 | 35 | 983.6 |
| 20260507214343 | 68 | 212 | 2.6 | 3.5 | 0.00 | 0.00 | 0.00 | 35 | 983.8 |
| 20260507213843 | 69 | 197 | 1.7 | 5.2 | 0.00 | 0.00 | 0.00 | 36 | 983.5 |
| 20260507213341 | 69 | 200 | 2.6 | 3.5 | 0.00 | 0.00 | 0.00 | 35 | 983.3 |
| 20260507212837 | 68 | 194 | 1.7 | 3.5 | 0.00 | 0.00 | 0.00 | 36 | 983.5 |
| 20260507212333 | 68 | 155 | 3.5 | 3.5 | 0.00 | 0.00 | 0.00 | 35 | 983.5 |
| 20260507211830 | 68 | 142 | 3.5 | 5.2 | 0.00 | 0.00 | 0.00 | 35 | 983.2 |
| 20260507211327 | 68 | 230 | 0.9 | 0.9 | 0.00 | 0.00 | 0.00 | 38 | 983.4 |
| 20260507210824 | 68 | 186 | 1.7 | 7.0 | 0.00 | 0.00 | 0.00 | 36 | 983.5 |
| 20260507210321 | 68 | 210 | 2.6 | 3.5 | 0.00 | 0.00 | 0.00 | 37 | 983.3 |
| 20260507205817 | 67 | 197 | 1.7 | 1.7 | 0.00 | 0.00 | 0.00 | 39 | 983.5 |
| 20260507205314 | 68 | 208 | 2.6 | 3.5 | 0.00 | 0.00 | 0.00 | 38 | 983.7 |
| 20260507204810 | 68 | 186 | 2.6 | 3.5 | 0.00 | 0.00 | 0.00 | 38 | 983.4 |
| 20260507204308 | 69 | 215 | 1.7 | 1.7 | 0.00 | 0.00 | 0.00 | 37 | 983.4 |
| 20260507203806 | 68 | 217 | 0.9 | 6.1 | 0.00 | 0.00 | 0.00 | 38 | 983.4 |
| 20260507203303 | 67 | 173 | 0.9 | 3.5 | 0.00 | 0.00 | 0.00 | 42 | 983.4 |
| 20260507202759 | 67 | 134 | 0.0 | 0.9 | 0.00 | 0.00 | 0.00 | 44 | 983.3 |
| 20260507202255 | 67 | 101 | 0.9 | 0.9 | 0.00 | 0.00 | 0.00 | 43 | 983.5 |
| 20260507201750 | 68 | 117 | 0.9 | 0.9 | 0.00 | 0.00 | 0.00 | 43 | 983.6 |
| 20260507201247 | 68 | 195 | 0.9 | 0.9 | 0.00 | 0.00 | 0.00 | 43 | 983.5 |
| 20260507200743 | 68 | 80 | 0.9 | 1.7 | 0.00 | 0.00 | 0.00 | 44 | 983.7 |
| 20260507200239 | 68 | 53 | 0.0 | 1.7 | 0.00 | 0.00 | 0.00 | 42 | 983.5 |
| 20260507195735 | 68 | 304 | 0.0 | 0.9 | 0.00 | 0.00 | 0.00 | 40 | 983.5 |
| 20260507195233 | 68 | 4 | 0.9 | 1.7 | 0.00 | 0.00 | 0.00 | 44 | 983.4 |
| 20260507194730 | 68 | 300 | 0.9 | 5.2 | 0.00 | 0.00 | 0.00 | 42 | 983.7 |
| 20260507194226 | 67 | 270 | 1.7 | 5.2 | 0.00 | 0.00 | 0.00 | 43 | 983.8 |
| 20260507193723 | 68 | 316 | 3.5 | 3.5 | 0.00 | 0.00 | 0.00 | 40 | 983.7 |
| 20260507193220 | 68 | 243 | 0.9 | 2.6 | 0.00 | 0.00 | 0.00 | 41 | 984.0 |
| 20260507192716 | 68 | 258 | 1.7 | 3.5 | 0.00 | 0.00 | 0.00 | 41 | 984.2 |
| 20260507192213 | 69 | 196 | 1.7 | 5.2 | 0.00 | 0.00 | 0.00 | 41 | 984.3 |
| 20260507191708 | 69 | 190 | 4.3 | 6.1 | 0.00 | 0.00 | 0.00 | 41 | 984.5 |
| 20260507191206 | 69 | 95 | 0.9 | 2.6 | 0.00 | 0.00 | 0.00 | 41 | 984.1 |
| 20260507190703 | 68 | 70 | 0.9 | 2.6 | 0.00 | 0.00 | 0.00 | 43 | 984.2 |
| 20260507190201 | 69 | 179 | 1.7 | 2.6 | 0.00 | 0.00 | 0.00 | 42 | 984.2 |
| 20260507185700 | 68 | 125 | 1.7 | 3.5 | 0.00 | 0.00 | 0.00 | 43 | 984.4 |
| 20260507185156 | 67 | 273 | 0.9 | 0.9 | 0.00 | 0.00 | 0.00 | 43 | 984.5 |
| 20260507184654 | 67 | 221 | 0.9 | 3.5 | 0.00 | 0.00 | 0.00 | 46 | 984.5 |
| 20260507184151 | 67 | 312 | 0.0 | 3.5 | 0.00 | 0.00 | 0.00 | 43 | 984.7 |
| 20260507183647 | 67 | 359 | 0.0 | 0.9 | 0.00 | 0.00 | 0.00 | 47 | 984.6 |
| 20260507183145 | 67 | 70 | 0.9 | 1.7 | 0.00 | 0.00 | 0.00 | 45 | 984.7 |
| 20260507182642 | 67 | 87 | 0.0 | 1.7 | 0.00 | 0.00 | 0.00 | 43 | 984.9 |
| 20260507182137 | 67 | 90 | 0.9 | 3.5 | 0.00 | 0.00 | 0.00 | 47 | 984.8 |
| 20260507181634 | 67 | 300 | 0.9 | 2.6 | 0.00 | 0.00 | 0.00 | 43 | 984.9 |
| 20260507181130 | 68 | 139 | 1.7 | 3.5 | 0.00 | 0.00 | 0.00 | 45 | 984.9 |
| 20260507180626 | 67 | 246 | 0.0 | 1.7 | 0.00 | 0.00 | 0.00 | 44 | 984.9 |
| 20260507180124 | 66 | 170 | 1.7 | 1.7 | 0.00 | 0.00 | 0.00 | 46 | 985.1 |
| 20260507175619 | 65 | 27 | 0.0 | 3.5 | 0.00 | 0.00 | 0.00 | 52 | 985.1 |
| 20260507175117 | 65 | 105 | 0.0 | 1.7 | 0.00 | 0.00 | 0.00 | 47 | 985.4 |
| 20260507174614 | 65 | 93 | 0.9 | 1.7 | 0.00 | 0.00 | 0.00 | 46 | 985.5 |
| 20260507174112 | 65 | 75 | 1.7 | 1.7 | 0.00 | 0.00 | 0.00 | 45 | 985.5 |
| 20260507173609 | 64 | 318 | 0.9 | 2.6 | 0.00 | 0.00 | 0.00 | 48 | 985.5 |
| 20260507173106 | 64 | 35 | 1.7 | 1.7 | 0.00 | 0.00 | 0.00 | 49 | 985.7 |
| 20260507172602 | 64 | 33 | 4.3 | 6.1 | 0.00 | 0.00 | 0.00 | 48 | 985.8 |
| 20260507172100 | 63 | 178 | 1.7 | 3.5 | 0.00 | 0.00 | 0.00 | 46 | 986.2 |
| 20260507171600 | 63 | 262 | 3.5 | 5.2 | 0.00 | 0.00 | 0.00 | 48 | 986.1 |
| 20260507171057 | 63 | 303 | 1.7 | 3.5 | 0.00 | 0.00 | 0.00 | 49 | 986.2 |
| 20260507170554 | 62 | 293 | 0.9 | 2.6 | 0.00 | 0.00 | 0.00 | 50 | 986.0 |
| 20260507170051 | 63 | 237 | 3.5 | 5.2 | 0.00 | 0.00 | 0.00 | 48 | 986.1 |
| 20260507165547 | 64 | 275 | 2.6 | 5.2 | 0.00 | 0.00 | 0.00 | 47 | 986.3 |
| 20260507165044 | 65 | 75 | 2.6 | 3.5 | 0.00 | 0.00 | 0.00 | 46 | 986.2 |
| 20260507164540 | 64 | 66 | 0.0 | 0.9 | 0.00 | 0.00 | 0.00 | 51 | 986.3 |
| 20260507164037 | 64 | 19 | 0.9 | 0.9 | 0.00 | 0.00 | 0.00 | 49 | 986.4 |
| 20260507163534 | 64 | 53 | 3.5 | 5.2 | 0.00 | 0.00 | 0.00 | 49 | 986.5 |
| 20260507163033 | 63 | 30 | 0.9 | 1.7 | 0.00 | 0.00 | 0.00 | 48 | 986.9 |
| 20260507162532 | 62 | 320 | 1.7 | 2.6 | 0.00 | 0.00 | 0.00 | 51 | 986.9 |
| 20260507162029 | 62 | 320 | 1.7 | 2.6 | 0.00 | 0.00 | 0.00 | 51 | 987.0 |
| 20260507161525 | 62 | 317 | 2.6 | 2.6 | 0.00 | 0.00 | 0.00 | 50 | 987.1 |
| 20260507161023 | 62 | 329 | 1.7 | 1.7 | 0.00 | 0.00 | 0.00 | 49 | 987.4 |
| 20260507160518 | 62 | 347 | 1.7 | 2.6 | 0.00 | 0.00 | 0.00 | 51 | 987.2 |
| 20260507160015 | 60 | 260 | 0.9 | 0.9 | 0.00 | 0.00 | 0.00 | 52 | 987.2 |
| 20260507155510 | 60 | 260 | 0.9 | 0.9 | 0.00 | 0.00 | 0.00 | 52 | 987.0 |
| 20260507155008 | 60 | 265 | 1.7 | 5.2 | 0.00 | 0.00 | 0.00 | 52 | 987.3 |
| 20260507154504 | 60 | 315 | 4.3 | 6.1 | 0.00 | 0.00 | 0.00 | 52 | 987.3 |
| 20260507154001 | 60 | 185 | 2.6 | 3.5 | 0.00 | 0.00 | 0.00 | 50 | 987.5 |
| 20260507153458 | 60 | 212 | 0.9 | 1.7 | 0.00 | 0.00 | 0.00 | 52 | 987.2 |
| 20260507152954 | 60 | 326 | 3.5 | 3.5 | 0.00 | 0.00 | 0.00 | 53 | 987.6 |
| 20260507152451 | 60 | 317 | 1.7 | 2.6 | 0.00 | 0.00 | 0.00 | 53 | 987.8 |
| 20260507151947 | 59 | 330 | 3.5 | 6.1 | 0.00 | 0.00 | 0.00 | 52 | 987.8 |
| 20260507151443 | 59 | 216 | 1.7 | 6.1 | 0.00 | 0.00 | 0.00 | 57 | 987.9 |
| 20260507150940 | 58 | 31 | 1.7 | 2.6 | 0.00 | 0.00 | 0.00 | 57 | 988.0 |
| 20260507150437 | 57 | 32 | 0.9 | 3.5 | 0.00 | 0.00 | 0.00 | 57 | 987.9 |
| 20260507145933 | 56 | 313 | 1.7 | 2.6 | 0.00 | 0.00 | 0.00 | 59 | 987.9 |
| 20260507145429 | 56 | 334 | 2.6 | 3.5 | 0.00 | 0.00 | 0.00 | 59 | 987.9 |
| 20260507144926 | 56 | 293 | 1.7 | 5.2 | 0.00 | 0.00 | 0.00 | 60 | 987.9 |
| 20260507144423 | 56 | 323 | 1.7 | 1.7 | 0.00 | 0.00 | 0.00 | 60 | 988.1 |
| 20260507143920 | 56 | 272 | 0.0 | 0.9 | 0.00 | 0.00 | 0.00 | 61 | 988.3 |
| 20260507143418 | 55 | 312 | 1.7 | 2.6 | 0.00 | 0.00 | 0.00 | 60 | 988.3 |
| 20260507142914 | 55 | 296 | 1.7 | 1.7 | 0.00 | 0.00 | 0.00 | 61 | 988.5 |
| 20260507142410 | 55 | 25 | 0.9 | 3.5 | 0.00 | 0.00 | 0.00 | 62 | 988.5 |
| 20260507141907 | 55 | 263 | 2.6 | 2.6 | 0.00 | 0.00 | 0.00 | 62 | 988.6 |
| 20260507141403 | 55 | 247 | 1.7 | 6.1 | 0.00 | 0.00 | 0.00 | 61 | 988.7 |
| 20260507140900 | 54 | 291 | 1.7 | 2.6 | 0.00 | 0.00 | 0.00 | 64 | 988.5 |
| 20260507140357 | 54 | 199 | 0.0 | 2.6 | 0.00 | 0.00 | 0.00 | 65 | 988.6 |
| 20260507135854 | 54 | 266 | 1.7 | 2.6 | 0.00 | 0.00 | 0.00 | 65 | 988.8 |
| 20260507135351 | 54 | 280 | 3.5 | 5.2 | 0.00 | 0.00 | 0.00 | 66 | 988.7 |
| 20260507134849 | 54 | 296 | 1.7 | 3.5 | 0.00 | 0.00 | 0.00 | 66 | 988.9 |
| 20260507134344 | 53 | 265 | 2.6 | 5.2 | 0.00 | 0.00 | 0.00 | 65 | 988.7 |
| 20260507133841 | 54 | 280 | 4.3 | 5.2 | 0.00 | 0.00 | 0.00 | 65 | 988.8 |
| 20260507133336 | 54 | 287 | 0.9 | 0.9 | 0.00 | 0.00 | 0.00 | 68 | 988.9 |
| 20260507132835 | 54 | 264 | 2.6 | 2.6 | 0.00 | 0.00 | 0.00 | 68 | 988.9 |
| 20260507132331 | 54 | 290 | 1.7 | 5.2 | 0.00 | 0.00 | 0.00 | 68 | 988.8 |
| 20260507131828 | 54 | 153 | 1.7 | 1.7 | 0.00 | 0.00 | 0.00 | 68 | 989.1 |
| 20260507131325 | 54 | 215 | 1.7 | 5.2 | 0.00 | 0.00 | 0.00 | 69 | 989.1 |
| 20260507130822 | 53 | 288 | 1.7 | 6.1 | 0.00 | 0.00 | 0.00 | 71 | 989.2 |
| 20260507130319 | 54 | 294 | 3.5 | 7.0 | 0.00 | 0.00 | 0.00 | 70 | 989.2 |
| 20260507125818 | 54 | 299 | 2.6 | 6.1 | 0.00 | 0.00 | 0.00 | 73 | 989.2 |
| 20260507125315 | 54 | 247 | 2.6 | 3.5 | 0.00 | 0.00 | 0.00 | 74 | 989.1 |
| 20260507124812 | 54 | 297 | 1.7 | 2.6 | 0.00 | 0.00 | 0.00 | 75 | 988.9 |
| 20260507124308 | 54 | 285 | 2.6 | 3.5 | 0.00 | 0.00 | 0.00 | 74 | 988.8 |
| 20260507123807 | 54 | 263 | 0.0 | 3.5 | 0.00 | 0.00 | 0.00 | 74 | 988.9 |
| 20260507123304 | 54 | 279 | 2.6 | 5.2 | 0.00 | 0.00 | 0.00 | 74 | 988.9 |
| 20260507122800 | 55 | 229 | 0.0 | 5.2 | 0.00 | 0.00 | 0.00 | 74 | 988.8 |
| 20260507122255 | 55 | 284 | 0.0 | 3.5 | 0.00 | 0.00 | 0.00 | 74 | 988.5 |
| 20260507121752 | 55 | 285 | 2.6 | 5.2 | 0.00 | 0.00 | 0.00 | 74 | 988.6 |
| 20260507121248 | 54 | 284 | 1.7 | 2.6 | 0.00 | 0.00 | 0.00 | 75 | 988.5 |
| 20260507120744 | 54 | 314 | 1.7 | 1.7 | 0.00 | 0.00 | 0.00 | 74 | 988.7 |
| 20260507120241 | 54 | 295 | 0.9 | 3.5 | 0.00 | 0.00 | 0.00 | 74 | 988.7 |
| 20260507115737 | 54 | 280 | 1.7 | 3.5 | 0.00 | 0.00 | 0.00 | 74 | 988.7 |
| 20260507115233 | 54 | 263 | 2.6 | 2.6 | 0.00 | 0.00 | 0.00 | 74 | 988.4 |
| 20260507114728 | 54 | 271 | 0.9 | 1.7 | 0.00 | 0.00 | 0.00 | 75 | 988.5 |
| 20260507114226 | 54 | 272 | 0.9 | 3.5 | 0.00 | 0.00 | 0.00 | 74 | 988.3 |
| 20260507113724 | 54 | 262 | 0.9 | 1.7 | 0.00 | 0.00 | 0.00 | 73 | 988.4 |
| 20260507113220 | 54 | 281 | 0.9 | 1.7 | 0.00 | 0.00 | 0.00 | 73 | 988.3 |
| 20260507112718 | 54 | 257 | 0.9 | 1.7 | 0.00 | 0.00 | 0.00 | 73 | 988.3 |
| 20260507112215 | 54 | 261 | 0.9 | 0.9 | 0.00 | 0.00 | 0.00 | 73 | 988.4 |
| 20260507111712 | 54 | 261 | 0.9 | 1.7 | 0.00 | 0.00 | 0.00 | 73 | 988.2 |
| 20260507111209 | 54 | 229 | 0.0 | 0.0 | 0.00 | 0.00 | 0.00 | 73 | 988.1 |
| 20260507110704 | 54 | 221 | 0.0 | 0.9 | 0.00 | 0.00 | 0.00 | 72 | 988.2 |
| 20260507110201 | 54 | 256 | 0.0 | 0.9 | 0.00 | 0.00 | 0.00 | 72 | 988.0 |
| 20260507105659 | 54 | 273 | 0.0 | 0.9 | 0.00 | 0.00 | 0.00 | 72 | 988.1 |
| 20260507105154 | 54 | 241 | 0.0 | 0.9 | 0.00 | 0.00 | 0.00 | 72 | 988.1 |
| 20260507104652 | 54 | 265 | 0.0 | 0.9 | 0.00 | 0.00 | 0.00 | 72 | 987.9 |
| 20260507104148 | 54 | 257 | 0.0 | 0.0 | 0.00 | 0.00 | 0.00 | 73 | 988.0 |
| 20260507103644 | 54 | 262 | 0.9 | 1.7 | 0.00 | 0.00 | 0.00 | 72 | 988.1 |
| 20260507103141 | 54 | 261 | 0.0 | 0.9 | 0.00 | 0.00 | 0.00 | 72 | 987.9 |
| 20260507102637 | 54 | 216 | 0.0 | 0.9 | 0.00 | 0.00 | 0.00 | 71 | 987.9 |
| 20260507102133 | 54 | 212 | 0.0 | 0.9 | 0.00 | 0.00 | 0.00 | 72 | 988.0 |
| 20260507101630 | 54 | 163 | 0.0 | 0.9 | 0.00 | 0.00 | 0.00 | 72 | 987.8 |
| 20260507101125 | 54 | 181 | 0.0 | 0.0 | 0.00 | 0.00 | 0.00 | 72 | 987.6 |
| 20260507100623 | 54 | 251 | 0.0 | 0.0 | 0.00 | 0.00 | 0.00 | 72 | 987.8 |
| 20260507100121 | 54 | 269 | 0.0 | 0.9 | 0.00 | 0.00 | 0.00 | 72 | 987.9 |
| 20260507095619 | 54 | 160 | 0.9 | 1.7 | 0.00 | 0.00 | 0.00 | 72 | 987.9 |
| 20260507095115 | 54 | 276 | 0.0 | 0.9 | 0.00 | 0.00 | 0.00 | 72 | 987.8 |
| 20260507094611 | 54 | 263 | 2.6 | 3.5 | 0.00 | 0.00 | 0.00 | 73 | 987.6 |
| 20260507094109 | 54 | 281 | 0.0 | 1.7 | 0.00 | 0.00 | 0.00 | 74 | 987.7 |
| 20260507093606 | 54 | 320 | 0.0 | 0.9 | 0.00 | 0.00 | 0.00 | 76 | 987.8 |
| 20260507093105 | 54 | 320 | 0.0 | 0.9 | 0.00 | 0.00 | 0.00 | 75 | 987.5 |
| 20260507092601 | 54 | 320 | 0.0 | 0.9 | 0.00 | 0.00 | 0.00 | 76 | 987.7 |
| 20260507092057 | 54 | 320 | 0.0 | 0.0 | 0.00 | 0.00 | 0.00 | 76 | 987.8 |
| 20260507091554 | 54 | 320 | 0.0 | 0.9 | 0.00 | 0.00 | 0.00 | 76 | 987.7 |
| 20260507091050 | 54 | 320 | 0.0 | 0.0 | 0.00 | 0.00 | 0.00 | 76 | 987.5 |
| 20260507090546 | 0 | 0.0 | 0.0 | 0.00 | 0.00 | 0.00 | 987.5 | ||
| 20260507090043 | 54 | 320 | 0.0 | 0.9 | 0.00 | 0.00 | 0.00 | 75 | 987.5 |
| 20260507085540 | 54 | 320 | 0.0 | 0.9 | 0.00 | 0.00 | 0.00 | 75 | 987.5 |
| 20260507085037 | 0 | 0.0 | 0.0 | 0.00 | 0.00 | 0.00 | 987.1 | ||
| 20260507084533 | 0 | 0.0 | 0.0 | 0.00 | 0.00 | 0.00 | 987.2 | ||
| 20260507084031 | 0 | 0.0 | 0.0 | 0.00 | 0.00 | 0.00 | 987.3 | ||
| 20260507083527 | 0 | 0.0 | 0.0 | 0.00 | 0.00 | 0.00 | 987.3 | ||
| 20260507083024 | 0 | 0.0 | 0.0 | 0.00 | 0.00 | 0.00 | 987.4 | ||
| 20260507082520 | 0 | 0.0 | 0.0 | 0.00 | 0.00 | 0.00 | 987.5 | ||
| 20260507082016 | 0 | 0.0 | 0.0 | 0.00 | 0.00 | 0.00 | 987.7 | ||
| 20260507081513 | 0 | 0.0 | 0.0 | 0.00 | 0.00 | 0.00 | 987.6 | ||
| 20260507081010 | 0 | 0.0 | 0.0 | 0.00 | 0.00 | 0.00 | 987.6 | ||
| 20260507080505 | 0 | 0.0 | 0.0 | 0.00 | 0.00 | 0.00 | 987.8 | ||
| 20260507080001 | 0 | 0.0 | 0.0 | 0.00 | 0.00 | 0.00 | 988.0 | ||
| 20260507075457 | 0 | 0.0 | 0.0 | 0.00 | 0.00 | 0.00 | 987.6 | ||
| 20260507074954 | 55 | 267 | 1.7 | 1.7 | 0.00 | 0.00 | 0.00 | 73 | 987.2 |
| 20260507074451 | 55 | 267 | 1.7 | 1.7 | 0.00 | 0.00 | 0.00 | 73 | 987.5 |
| 20260507073949 | 0 | 0.0 | 0.0 | 0.00 | 0.00 | 0.00 | 987.6 | ||
| 20260507073445 | 0 | 0.0 | 0.0 | 0.00 | 0.00 | 0.00 | 987.2 | ||
| 20260507072942 | 0 | 0.0 | 0.0 | 0.00 | 0.00 | 0.00 | 987.4 | ||
| 20260507072440 | 55 | 238 | 0.9 | 1.7 | 0.00 | 0.00 | 0.00 | 74 | 987.0 |
| 20260507071937 | 55 | 238 | 0.9 | 1.7 | 0.00 | 0.00 | 0.00 | 74 | 987.1 |
| 20260507071434 | 55 | 242 | 1.7 | 2.6 | 0.00 | 0.00 | 0.00 | 74 | 986.9 |
| 20260507070930 | 55 | 242 | 1.7 | 2.6 | 0.00 | 0.00 | 0.00 | 74 | 987.1 |
| 20260507070428 | 55 | 198 | 1.7 | 2.6 | 0.00 | 0.00 | 0.00 | 76 | 987.4 |
| 20260507065924 | 55 | 217 | 0.0 | 0.0 | 0.00 | 0.00 | 0.00 | 79 | 987.5 |
| 20260507065421 | 55 | 295 | 3.5 | 3.5 | 0.00 | 0.00 | 0.00 | 79 | 987.1 |
| 20260507064918 | 55 | 290 | 1.7 | 3.5 | 0.00 | 0.00 | 0.00 | 79 | 987.2 |
| 20260507064417 | 55 | 253 | 3.5 | 5.2 | 0.00 | 0.00 | 0.00 | 79 | 987.4 |
| 20260507063914 | 55 | 276 | 0.9 | 1.7 | 0.00 | 0.00 | 0.00 | 79 | 987.4 |
| 20260507063411 | 56 | 290 | 1.7 | 5.2 | 0.00 | 0.00 | 0.00 | 79 | 987.3 |
| 20260507062908 | 56 | 294 | 1.7 | 2.6 | 0.00 | 0.00 | 0.00 | 78 | 987.2 |
| 20260507062405 | 56 | 263 | 2.6 | 5.2 | 0.00 | 0.00 | 0.00 | 77 | 987.2 |
| 20260507061902 | 56 | 199 | 2.6 | 3.5 | 0.00 | 0.00 | 0.00 | 75 | 987.3 |
| 20260507061400 | 56 | 268 | 1.7 | 1.7 | 0.00 | 0.00 | 0.00 | 75 | 987.3 |
| 20260507060859 | 57 | 206 | 2.6 | 5.2 | 0.00 | 0.00 | 0.00 | 75 | 987.4 |
| 20260507060355 | 57 | 206 | 2.6 | 5.2 | 0.00 | 0.00 | 0.00 | 75 | 987.5 |
| 20260507055852 | 57 | 293 | 0.0 | 1.7 | 0.00 | 0.00 | 0.00 | 76 | 987.3 |
| 20260507055346 | 57 | 123 | 1.7 | 1.7 | 0.00 | 0.00 | 0.00 | 77 | 987.5 |
| 20260507054844 | 57 | 191 | 0.9 | 1.7 | 0.00 | 0.00 | 0.00 | 77 | 987.6 |
| 20260507054340 | 57 | 195 | 1.7 | 1.7 | 0.00 | 0.00 | 0.00 | 77 | 987.5 |
| 20260507053837 | 57 | 214 | 2.6 | 5.2 | 0.00 | 0.00 | 0.00 | 77 | 987.4 |
| 20260507053335 | 58 | 155 | 0.9 | 1.7 | 0.00 | 0.00 | 0.00 | 77 | 987.3 |
| 20260507052834 | 0 | 0.0 | 0.0 | 0.00 | 0.00 | 0.00 | 987.1 | ||
| 20260507052330 | 58 | 289 | 2.6 | 3.5 | 0.00 | 0.00 | 0.00 | 77 | 987.1 |
| 20260507051828 | 58 | 289 | 2.6 | 3.5 | 0.00 | 0.00 | 0.00 | 77 | 986.8 |
| 20260507051325 | 58 | 289 | 2.6 | 7.0 | 0.00 | 0.00 | 0.00 | 77 | 986.7 |
| 20260507050822 | 58 | 280 | 1.7 | 2.6 | 0.00 | 0.00 | 0.00 | 78 | 987.0 |
| 20260507050318 | 58 | 279 | 2.6 | 2.6 | 0.00 | 0.00 | 0.00 | 77 | 987.0 |
| 20260507045815 | 58 | 303 | 1.7 | 2.6 | 0.00 | 0.00 | 0.00 | 78 | 986.9 |
| 20260507045312 | 58 | 271 | 2.6 | 3.5 | 0.00 | 0.00 | 0.00 | 78 | 986.8 |
| 20260507044809 | 59 | 292 | 0.9 | 0.9 | 0.00 | 0.00 | 0.00 | 78 | 986.9 |
| 20260507044305 | 59 | 299 | 0.9 | 0.9 | 0.00 | 0.00 | 0.00 | 77 | 986.9 |
| 20260507043801 | 59 | 179 | 0.9 | 3.5 | 0.00 | 0.00 | 0.00 | 77 | 986.8 |
| 20260507043258 | 59 | 246 | 0.0 | 0.9 | 0.00 | 0.00 | 0.00 | 78 | 986.9 |
| 20260507042754 | 59 | 282 | 2.6 | 2.6 | 0.00 | 0.00 | 0.00 | 78 | 986.5 |
| 20260507042249 | 59 | 264 | 0.9 | 3.5 | 0.00 | 0.00 | 0.00 | 78 | 986.3 |
| 20260507041748 | 59 | 246 | 0.9 | 6.1 | 0.00 | 0.00 | 0.00 | 77 | 985.7 |
| 20260507041244 | 59 | 309 | 1.7 | 3.5 | 0.00 | 0.00 | 0.00 | 78 | 985.4 |
| 20260507040741 | 59 | 185 | 0.9 | 0.9 | 0.00 | 0.00 | 0.00 | 78 | 986.4 |
| 20260507040237 | 59 | 267 | 0.0 | 1.7 | 0.00 | 0.00 | 0.00 | 78 | 985.8 |
| 20260507035733 | 59 | 351 | 1.7 | 1.7 | 0.00 | 0.13 | 0.13 | 78 | 986.2 |
| 20260507035228 | 60 | 270 | 0.9 | 1.7 | 0.00 | 0.13 | 0.13 | 79 | 986.3 |
| 20260507034726 | 60 | 295 | 2.6 | 3.5 | 0.00 | 0.13 | 0.13 | 78 | 986.8 |
| 20260507034223 | 60 | 332 | 3.5 | 5.2 | 0.00 | 0.13 | 0.13 | 77 | 986.5 |
| 20260507033721 | 60 | 314 | 3.5 | 5.2 | 0.00 | 0.13 | 0.13 | 77 | 986.6 |
| 20260507033219 | 60 | 274 | 3.5 | 3.5 | 0.00 | 0.13 | 0.13 | 77 | 986.9 |
| 20260507032716 | 61 | 299 | 1.7 | 3.5 | 0.00 | 0.13 | 0.13 | 76 | 987.2 |
| 20260507032212 | 61 | 183 | 2.6 | 3.5 | 0.00 | 0.13 | 0.13 | 76 | 986.8 |
| 20260507031709 | 61 | 201 | 0.0 | 0.9 | 0.00 | 0.13 | 0.13 | 77 | 986.6 |
| 20260507031205 | 61 | 149 | 0.0 | 0.0 | 0.00 | 0.13 | 0.13 | 76 | 986.3 |
| 20260507030702 | 61 | 263 | 3.5 | 3.5 | 0.00 | 0.13 | 0.13 | 76 | 986.1 |
| 20260507030200 | 62 | 26 | 2.6 | 5.2 | 0.00 | 0.13 | 0.13 | 76 | 985.7 |
| 20260507025657 | 62 | 280 | 4.3 | 6.1 | 0.00 | 0.13 | 0.13 | 76 | 986.2 |
| 20260507025153 | 62 | 274 | 5.2 | 6.1 | 0.00 | 0.13 | 0.13 | 77 | 986.8 |
| 20260507024652 | 63 | 256 | 0.0 | 0.9 | 0.00 | 0.13 | 0.13 | 78 | 986.6 |
| 20260507024149 | 63 | 326 | 1.7 | 2.6 | 0.00 | 0.13 | 0.13 | 77 | 986.4 |
| 20260507023644 | 64 | 195 | 0.9 | 0.9 | 0.00 | 0.13 | 0.13 | 77 | 986.4 |
| 20260507023142 | 64 | 172 | 1.7 | 2.6 | 0.00 | 0.13 | 0.13 | 77 | 986.2 |
| 20260507022638 | 64 | 235 | 0.9 | 0.9 | 0.00 | 0.13 | 0.13 | 76 | 986.2 |
| 20260507022134 | 64 | 183 | 1.7 | 3.5 | 0.00 | 0.13 | 0.13 | 73 | 986.1 |
| 20260507021631 | 64 | 183 | 1.7 | 3.5 | 0.00 | 0.13 | 0.13 | 73 | 985.9 |
| 20260507021126 | 65 | 272 | 0.9 | 0.9 | 0.00 | 0.13 | 0.13 | 73 | 985.2 |
| 20260507020625 | 65 | 272 | 0.9 | 0.9 | 0.00 | 0.13 | 0.13 | 73 | 985.6 |
| 20260507020120 | 65 | 281 | 0.9 | 1.7 | 0.00 | 0.13 | 0.13 | 72 | 985.3 |
| 20260507015619 | 65 | 265 | 0.0 | 1.7 | 0.00 | 0.13 | 0.13 | 72 | 985.1 |
| 20260507015116 | 65 | 299 | 0.9 | 1.7 | 0.00 | 0.13 | 0.13 | 72 | 985.5 |
| 20260507014613 | 65 | 279 | 1.7 | 1.7 | 0.00 | 0.13 | 0.13 | 74 | 985.9 |
| 20260507014108 | 65 | 279 | 1.7 | 1.7 | 0.00 | 0.13 | 0.13 | 74 | 986.0 |
| 20260507013606 | 65 | 297 | 1.7 | 3.5 | 0.00 | 0.13 | 0.13 | 74 | 985.6 |
| 20260507013102 | 65 | 262 | 0.9 | 1.7 | 0.00 | 0.13 | 0.13 | 74 | 985.7 |
| 20260507012600 | 66 | 282 | 1.7 | 1.7 | 0.00 | 0.13 | 0.13 | 73 | 985.7 |
| 20260507012055 | 66 | 282 | 1.7 | 1.7 | 0.00 | 0.13 | 0.13 | 73 | 985.3 |
| 20260507011553 | 66 | 311 | 0.0 | 0.9 | 0.00 | 0.13 | 0.13 | 74 | 985.1 |
| 20260507011049 | 66 | 351 | 3.5 | 3.5 | 0.00 | 0.13 | 0.13 | 72 | 985.0 |
| 20260507010544 | 66 | 323 | 4.3 | 7.0 | 0.00 | 0.13 | 0.13 | 71 | 985.0 |
| 20260507010040 | 66 | 258 | 1.7 | 1.7 | 0.00 | 0.13 | 0.13 | 71 | 985.3 |
| 20260507005538 | 66 | 259 | 0.9 | 0.9 | 0.00 | 0.13 | 0.13 | 71 | 985.6 |
| 20260507005034 | 0 | 0.0 | 0.0 | 0.00 | 0.13 | 0.13 | 985.3 | ||
| 20260507004531 | 0 | 0.0 | 0.0 | 0.00 | 0.13 | 0.13 | 985.5 | ||
| 20260507004029 | 66 | 318 | 1.7 | 2.6 | 0.00 | 0.13 | 0.13 | 72 | 985.6 |
| 20260507003524 | 66 | 318 | 1.7 | 2.6 | 0.00 | 0.13 | 0.13 | 72 | 985.6 |
| 20260507003020 | 66 | 307 | 0.0 | 0.0 | 0.00 | 0.13 | 0.13 | 72 | 985.6 |
| 20260507002516 | 66 | 307 | 0.0 | 0.0 | 0.00 | 0.13 | 0.13 | 72 | 985.4 |
| 20260507002013 | 67 | 279 | 1.7 | 1.7 | 0.00 | 0.13 | 0.13 | 71 | 985.3 |
| 20260507001509 | 67 | 203 | 0.0 | 0.9 | 0.00 | 0.13 | 0.13 | 71 | 985.5 |
| 20260507001007 | 67 | 202 | 0.0 | 0.9 | 0.00 | 0.13 | 0.13 | 71 | 985.4 |
| 20260507000502 | 67 | 221 | 1.7 | 2.6 | 0.00 | 0.13 | 0.13 | 70 | 985.4 |
| 20260506235958 | 67 | 221 | 1.7 | 2.6 | 0.00 | 0.13 | 0.13 | 70 | 985.3 |
| 20260506235455 | 68 | 180 | 1.7 | 1.7 | 0.00 | 0.13 | 0.13 | 69 | 985.0 |
| 20260506234951 | 68 | 180 | 1.7 | 1.7 | 0.00 | 0.13 | 0.13 | 69 | 985.3 |
| 20260506234449 | 68 | 184 | 3.5 | 5.2 | 0.00 | 0.13 | 0.13 | 68 | 985.3 |
| 20260506233946 | 69 | 175 | 2.6 | 3.5 | 0.00 | 0.13 | 0.13 | 68 | 985.1 |
| 20260506233443 | 69 | 166 | 2.6 | 3.5 | 0.00 | 0.13 | 0.13 | 68 | 985.0 |
| 20260506232939 | 69 | 178 | 0.0 | 0.0 | 0.00 | 0.13 | 0.13 | 71 | 984.7 |
| 20260506232436 | 69 | 178 | 0.0 | 0.0 | 0.00 | 0.13 | 0.13 | 71 | 984.7 |
| 20260506231931 | 0 | 0.0 | 0.0 | 0.00 | 0.13 | 0.13 | 984.7 |